"read_dt","SO2 (ppb)","flags","PMT voltage (V)","lamp voltage (V)","lamp intensity (Hz)","internal temp (C)","react chamber temp (C)","sample flow (l/min)","pres (mmHg)","SO2 bkg (ppb)","SO2 coefficient"
2014-04-24 00:00:00,2794E-2,5C000400,-0724,1005,10433,028.2,045.3,0.150,744.9,01.17,0.508
2014-04-24 00:01:00,2848E-2,5C000400,-0724,1004,10468,028.2,045.3,0.149,745.0,01.17,0.508
2014-04-24 00:02:00,2825E-2,5C000400,-0724,1005,10549,028.2,045.3,0.150,744.9,01.17,0.508
2014-04-24 00:03:00,2859E-2,5C000400,-0724,1004,10552,028.2,045.3,0.149,744.8,01.17,0.508
2014-04-24 00:04:00,2839E-2,5C000400,-0724,1003,10318,028.2,045.3,0.150,744.8,01.17,0.508
2014-04-24 00:05:00,2835E-2,5C000400,-0724,1003,10475,028.2,045.3,0.150,744.8,01.17,0.508
2014-04-24 00:06:00,2839E-2,5C000400,-0724,1003,10578,028.2,045.3,0.150,744.9,01.17,0.508
2014-04-24 00:07:00,2801E-2,5C000400,-0724,1002,10430,028.2,045.3,0.150,744.7,01.17,0.508
2014-04-24 00:08:00,2802E-2,5C000400,-0724,1004,10578,028.2,045.3,0.150,744.9,01.17,0.508
2014-04-24 00:09:00,2835E-2,5C000400,-0724,1003,10396,028.2,045.3,0.150,744.8,01.17,0.508
2014-04-24 00:10:00,2822E-2,5C000400,-0724,1004,10527,028.2,045.3,0.150,744.8,01.17,0.508
2014-04-24 00:11:00,2862E-2,5C000400,-0724,1003,10507,028.2,045.3,0.150,744.8,01.17,0.508
2014-04-24 00:12:00,2852E-2,5C000400,-0724,1003,10369,028.2,045.3,0.150,744.8,01.17,0.508
2014-04-24 00:13:00,2862E-2,5C000400,-0724,1004,10423,028.2,045.3,0.150,744.8,01.17,0.508
2014-04-24 00:14:00,2847E-2,5C000400,-0724,1004,10560,028.2,045.3,0.150,744.9,01.17,0.508
2014-04-24 00:15:00,2861E-2,5C000400,-0724,1003,10614,028.2,045.3,0.150,744.8,01.17,0.508
2014-04-24 00:16:00,2857E-2,5C000400,-0724,1003,10416,028.2,045.3,0.150,744.9,01.17,0.508
2014-04-24 00:17:00,2822E-2,5C000400,-0724,1004,10465,028.1,045.3,0.150,744.7,01.17,0.508
2014-04-24 00:18:00,2829E-2,5C000400,-0724,1004,10545,028.2,045.3,0.150,744.8,01.17,0.508
2014-04-24 00:19:00,2830E-2,5C000400,-0724,1006,10420,028.2,045.3,0.150,744.8,01.17,0.508
2014-04-24 00:20:00,2838E-2,5C000400,-0724,1005,10373,028.1,045.3,0.150,744.9,01.17,0.508
2014-04-24 00:21:00,2803E-2,5C000400,-0724,1003,10480,028.1,045.3,0.150,744.9,01.17,0.508
2014-04-24 00:22:00,2840E-2,5C000400,-0724,1003,10549,028.2,045.3,0.150,745.0,01.17,0.508
2014-04-24 00:23:00,2846E-2,5C000400,-0724,1003,10345,028.1,045.3,0.150,744.9,01.17,0.508
2014-04-24 00:24:00,2888E-2,5C000400,-0724,1004,10398,028.1,045.3,0.150,744.9,01.17,0.508
2014-04-24 00:25:00,2813E-2,5C000400,-0724,1003,10501,028.1,045.3,0.150,744.9,01.17,0.508
2014-04-24 00:26:00,2831E-2,5C000400,-0724,1004,10500,028.1,045.3,0.150,745.0,01.17,0.508
2014-04-24 00:27:00,2856E-2,5C000400,-0724,1004,10614,028.1,045.3,0.150,745.1,01.17,0.508
2014-04-24 00:28:00,2837E-2,5C000400,-0724,1005,10431,028.1,045.3,0.150,745.0,01.17,0.508
2014-04-24 00:29:00,2887E-2,5C000400,-0724,1005,10421,028.1,045.3,0.150,745.1,01.17,0.508
2014-04-24 00:30:00,2867E-2,5C000400,-0724,1004,10503,028.1,045.3,0.150,745.1,01.17,0.508
2014-04-24 00:31:00,2870E-2,5C000400,-0724,1003,10311,028.1,045.3,0.150,745.1,01.17,0.508
2014-04-24 00:32:00,2864E-2,5C000400,-0724,1004,10574,028.1,045.3,0.150,745.2,01.17,0.508
2014-04-24 00:33:00,2869E-2,5C000400,-0724,1004,10461,028.1,045.3,0.150,745.1,01.17,0.508
2014-04-24 00:34:00,2878E-2,5C000400,-0724,1005,10589,028.1,045.3,0.150,745.1,01.17,0.508
2014-04-24 00:35:00,2861E-2,5C000400,-0724,1004,10382,028.1,045.3,0.150,745.1,01.17,0.508
2014-04-24 00:36:00,2904E-2,5C000400,-0724,1004,10536,028.1,045.3,0.150,745.1,01.17,0.508
2014-04-24 00:37:00,2883E-2,5C000400,-0724,1005,10557,028.1,045.3,0.150,745.1,01.17,0.508
2014-04-24 00:38:00,2862E-2,5C000400,-0724,1004,10585,028.1,045.3,0.150,745.1,01.17,0.508
2014-04-24 00:39:00,2895E-2,5C000400,-0724,1004,10476,028.1,045.3,0.150,745.1,01.17,0.508
2014-04-24 00:40:00,2900E-2,5C000400,-0724,1004,10344,028.1,045.3,0.150,745.1,01.17,0.508
2014-04-24 00:41:00,2874E-2,5C000400,-0724,1002,10434,028.1,045.3,0.150,745.1,01.17,0.508
2014-04-24 00:42:00,2916E-2,5C000400,-0724,1003,10372,028.1,045.3,0.150,745.1,01.17,0.508
2014-04-24 00:43:00,2916E-2,5C000400,-0724,1003,10601,028.1,045.3,0.150,745.1,01.17,0.508
2014-04-24 00:44:00,2908E-2,5C000400,-0724,1003,10411,028.1,045.3,0.150,745.1,01.17,0.508
2014-04-24 00:45:00,2897E-2,5C000400,-0724,1004,10496,028.1,045.3,0.150,745.1,01.17,0.508
2014-04-24 00:46:00,2863E-2,5C000400,-0724,1004,10337,028.1,045.3,0.150,745.2,01.17,0.508
2014-04-24 00:47:00,2928E-2,5C000400,-0724,1004,10407,028.1,045.3,0.150,745.2,01.17,0.508
2014-04-24 00:48:00,2897E-2,5C000400,-0724,1004,10598,028.1,045.3,0.150,745.2,01.17,0.508
2014-04-24 00:49:00,2879E-2,5C000400,-0724,1004,10520,028.0,045.3,0.150,745.2,01.17,0.508
2014-04-24 00:50:00,2942E-2,5C000400,-0724,1004,10484,028.0,045.3,0.150,745.2,01.17,0.508
2014-04-24 00:51:00,2896E-2,5C000400,-0724,1004,10324,028.0,045.3,0.150,745.3,01.17,0.508
2014-04-24 00:52:00,2923E-2,5C000400,-0724,1004,10454,028.0,045.3,0.150,745.3,01.17,0.508
2014-04-24 00:53:00,2922E-2,5C000400,-0724,1004,10471,028.0,045.3,0.150,745.3,01.17,0.508
2014-04-24 00:54:00,2857E-2,5C000400,-0724,1004,10540,028.0,045.3,0.150,745.4,01.17,0.508
2014-04-24 00:55:00,2880E-2,5C000400,-0724,1003,10704,028.0,045.3,0.150,745.4,01.17,0.508
2014-04-24 00:56:00,2921E-2,5C000400,-0724,1001,10279,028.0,045.3,0.150,745.3,01.17,0.508
2014-04-24 00:57:00,2884E-2,5C000400,-0724,1002,10494,028.0,045.3,0.150,745.4,01.17,0.508
2014-04-24 00:58:00,2908E-2,5C000400,-0724,1001,10655,028.0,045.3,0.150,745.3,01.17,0.508
2014-04-24 00:59:00,2858E-2,5C000400,-0724,1000,10388,028.0,045.3,0.150,745.4,01.17,0.508
2014-04-24 01:00:00,2837E-2,5C000400,-0724,1001,10528,028.0,045.3,0.150,745.4,01.17,0.508
2014-04-24 01:01:00,2850E-2,5C000400,-0724,1001,10465,028.0,045.3,0.150,745.4,01.17,0.508
2014-04-24 01:02:00,2923E-2,5C000400,-0724,1001,10494,028.0,045.3,0.150,745.4,01.17,0.508
2014-04-24 01:03:00,2879E-2,5C000400,-0724,1001,10461,028.0,045.3,0.150,745.4,01.17,0.508
2014-04-24 01:04:00,2873E-2,5C000400,-0724,1001,10557,028.0,045.3,0.150,745.3,01.17,0.508
2014-04-24 01:05:00,2850E-2,5C000400,-0724,1001,10530,028.0,045.3,0.150,745.2,01.17,0.508
2014-04-24 01:06:00,2908E-2,5C000400,-0724,1003,10472,028.0,045.3,0.150,745.3,01.17,0.508
2014-04-24 01:07:00,2884E-2,5C000400,-0724,1002,10410,028.0,045.3,0.150,745.2,01.17,0.508
2014-04-24 01:08:00,2891E-2,5C000400,-0724,1003,10520,028.0,045.3,0.150,745.1,01.17,0.508
2014-04-24 01:09:00,2906E-2,5C000400,-0724,1002,10412,028.0,045.3,0.150,745.0,01.17,0.508
2014-04-24 01:10:00,2906E-2,5C000400,-0724,1003,10424,028.0,045.3,0.150,745.1,01.17,0.508
2014-04-24 01:11:00,2883E-2,5C000400,-0724,1004,10551,028.0,045.3,0.150,745.2,01.17,0.508
2014-04-24 01:12:00,2848E-2,5C000400,-0724,1004,10637,028.0,045.3,0.150,745.1,01.17,0.508
2014-04-24 01:13:00,2880E-2,5C000400,-0724,1003,10572,028.0,045.3,0.150,745.0,01.17,0.508
2014-04-24 01:14:00,2864E-2,5C000400,-0724,1004,10526,028.0,045.3,0.150,744.9,01.17,0.508
2014-04-24 01:15:00,2900E-2,5C000400,-0724,1005,10453,028.0,045.3,0.150,745.1,01.17,0.508
2014-04-24 01:16:00,2855E-2,5C000400,-0724,1004,10581,028.0,045.3,0.150,745.1,01.17,0.508
2014-04-24 01:17:00,2883E-2,5C000400,-0724,1004,10579,028.0,045.3,0.150,745.2,01.17,0.508
2014-04-24 01:18:00,2927E-2,5C000400,-0724,1004,10424,028.0,045.3,0.150,745.1,01.17,0.508
2014-04-24 01:19:00,2877E-2,5C000400,-0724,1003,10466,028.0,045.3,0.150,745.2,01.17,0.508
2014-04-24 01:20:00,2871E-2,5C000400,-0724,1005,10429,028.0,045.3,0.150,745.1,01.17,0.508
2014-04-24 01:21:00,2920E-2,5C000400,-0724,1004,10468,028.0,045.3,0.150,745.2,01.17,0.508
2014-04-24 01:22:00,2880E-2,5C000400,-0724,1005,10628,028.0,045.3,0.150,745.2,01.17,0.508
2014-04-24 01:23:00,2864E-2,5C000400,-0724,1005,10421,028.0,045.3,0.150,745.2,01.17,0.508
2014-04-24 01:24:00,2894E-2,5C000400,-0724,1006,10498,028.0,045.3,0.150,745.1,01.17,0.508
2014-04-24 01:25:00,2866E-2,5C000400,-0724,1006,10242,028.0,045.3,0.150,745.3,01.17,0.508
2014-04-24 01:26:00,2889E-2,5C000400,-0724,1005,10581,028.0,045.3,0.150,745.3,01.17,0.508
2014-04-24 01:27:00,2911E-2,5C000400,-0724,1006,10507,028.0,045.3,0.150,745.1,01.17,0.508
2014-04-24 01:28:00,2877E-2,5C000400,-0724,1005,10525,028.0,045.3,0.150,745.3,01.17,0.508
2014-04-24 01:29:00,2859E-2,5C000400,-0724,1007,10526,028.0,045.3,0.150,745.2,01.17,0.508
2014-04-24 01:30:00,2882E-2,5C000400,-0724,1005,10353,028.0,045.3,0.150,745.2,01.17,0.508
2014-04-24 01:31:00,2860E-2,5C000400,-0724,1006,10366,028.0,045.3,0.150,745.1,01.17,0.508
2014-04-24 01:32:00,2869E-2,5C000400,-0724,1005,10373,028.0,045.3,0.150,745.2,01.17,0.508
2014-04-24 01:33:00,2917E-2,5C000400,-0724,1005,10559,027.9,045.3,0.150,745.0,01.17,0.508
2014-04-24 01:34:00,2875E-2,5C000400,-0724,1005,10547,028.0,045.3,0.150,745.2,01.17,0.508
2014-04-24 01:35:00,2897E-2,5C000400,-0724,1007,10468,028.0,045.3,0.150,745.1,01.17,0.508
2014-04-24 01:36:00,2894E-2,5C000400,-0724,1005,10537,028.0,045.3,0.150,745.1,01.17,0.508
2014-04-24 01:37:00,2934E-2,5C000400,-0724,1005,10573,028.0,045.3,0.150,745.2,01.17,0.508
2014-04-24 01:38:00,2892E-2,5C000400,-0724,1007,10199,027.9,045.3,0.150,745.1,01.17,0.508
2014-04-24 01:39:00,2940E-2,5C000400,-0724,1006,10374,027.9,045.3,0.150,745.3,01.17,0.508
2014-04-24 01:40:00,2884E-2,5C000400,-0724,1006,10423,027.9,045.3,0.150,745.1,01.17,0.508
2014-04-24 01:41:00,2910E-2,5C000400,-0724,1006,10502,028.0,045.3,0.150,745.2,01.17,0.508
2014-04-24 01:42:00,2881E-2,5C000400,-0724,1007,10364,027.9,045.3,0.150,745.1,01.17,0.508
2014-04-24 01:43:00,2902E-2,5C000400,-0724,1007,10285,027.9,045.3,0.150,745.2,01.17,0.508
2014-04-24 01:44:00,2888E-2,5C000400,-0724,1007,10457,027.9,045.3,0.150,745.2,01.17,0.508
2014-04-24 01:45:00,2895E-2,5C000400,-0724,1008,10481,027.9,045.3,0.150,745.2,01.17,0.508
2014-04-24 01:46:00,2878E-2,5C000400,-0724,1007,10279,027.9,045.3,0.150,745.2,01.17,0.508
2014-04-24 01:47:00,2901E-2,5C000400,-0724,1009,10482,028.0,045.3,0.150,745.3,01.17,0.508
2014-04-24 01:48:00,2900E-2,5C000400,-0724,1007,10474,027.9,045.3,0.150,745.2,01.17,0.508
2014-04-24 01:49:00,2875E-2,5C000400,-0724,1007,10453,027.9,045.3,0.150,745.2,01.17,0.508
2014-04-24 01:50:00,2939E-2,5C000400,-0724,1007,10598,027.9,045.3,0.150,745.3,01.17,0.508
2014-04-24 01:51:00,2908E-2,5C000400,-0724,1007,10487,027.9,045.3,0.150,745.2,01.17,0.508
2014-04-24 01:52:00,2928E-2,5C000400,-0724,1006,10503,027.9,045.3,0.150,745.2,01.17,0.508
2014-04-24 01:53:00,2888E-2,5C000400,-0724,1007,10547,027.9,045.3,0.150,745.3,01.17,0.508
2014-04-24 01:54:00,2919E-2,5C000400,-0724,1007,10386,027.9,045.3,0.150,745.3,01.17,0.508
2014-04-24 01:55:00,2943E-2,5C000400,-0724,1006,10435,027.9,045.3,0.150,745.2,01.17,0.508
2014-04-24 01:56:00,2899E-2,5C000400,-0724,1007,10248,027.9,045.3,0.150,745.2,01.17,0.508
2014-04-24 01:57:00,2918E-2,5C000400,-0724,1006,10487,027.9,045.3,0.150,745.2,01.17,0.508
2014-04-24 01:58:00,2960E-2,5C000400,-0724,1006,10479,027.9,045.3,0.150,745.3,01.17,0.508
2014-04-24 01:59:00,2903E-2,5C000400,-0724,1007,10477,027.9,045.3,0.150,745.2,01.17,0.508
2014-04-24 02:00:00,2883E-2,5C000400,-0724,1007,10526,027.9,045.3,0.150,745.3,01.17,0.508
2014-04-24 02:01:00,2959E-2,5C000400,-0724,1007,10347,027.9,045.3,0.150,745.3,01.17,0.508
2014-04-24 02:02:00,2905E-2,5C000400,-0724,1007,10483,027.9,045.3,0.150,745.3,01.17,0.508
2014-04-24 02:03:00,2917E-2,5C000400,-0724,1007,10531,027.9,045.3,0.150,745.4,01.17,0.508
2014-04-24 02:04:00,2923E-2,5C000400,-0724,1008,10489,027.9,045.3,0.150,745.4,01.17,0.508
2014-04-24 02:05:00,2944E-2,5C000400,-0724,1009,10427,027.9,045.3,0.150,745.3,01.17,0.508
2014-04-24 02:06:00,2931E-2,5C000400,-0724,1009,10287,027.9,045.3,0.150,745.3,01.17,0.508
2014-04-24 02:07:00,2986E-2,5C000400,-0724,1009,10488,027.9,045.3,0.150,745.1,01.17,0.508
2014-04-24 02:08:00,2905E-2,5C000400,-0724,1011,10226,027.9,045.3,0.150,745.2,01.17,0.508
2014-04-24 02:09:00,2966E-2,5C000400,-0724,1011,10503,027.9,045.3,0.150,745.2,01.17,0.508
2014-04-24 02:10:00,2989E-2,5C000400,-0724,1010,10385,027.9,045.3,0.150,745.2,01.17,0.508
2014-04-24 02:11:00,2992E-2,5C000400,-0724,1011,10462,027.9,045.3,0.150,745.2,01.17,0.508
2014-04-24 02:12:00,3007E-2,5C000400,-0724,1010,10496,027.9,045.3,0.150,745.3,01.17,0.508
2014-04-24 02:13:00,2975E-2,5C000400,-0724,1010,10371,027.9,045.3,0.150,745.3,01.17,0.508
2014-04-24 02:14:00,2974E-2,5C000400,-0724,1010,10500,027.9,045.3,0.150,745.4,01.17,0.508
2014-04-24 02:15:00,2932E-2,5C000400,-0724,1012,10356,027.9,045.3,0.150,745.2,01.17,0.508
2014-04-24 02:16:00,2959E-2,5C000400,-0724,1011,10438,027.9,045.3,0.150,745.3,01.17,0.508
2014-04-24 02:17:00,3043E-2,5C000400,-0724,1010,10402,027.9,045.3,0.150,745.2,01.17,0.508
2014-04-24 02:18:00,3005E-2,5C000400,-0724,1012,10408,027.9,045.3,0.150,745.4,01.17,0.508
2014-04-24 02:19:00,2965E-2,5C000400,-0724,1011,10526,027.9,045.3,0.150,745.2,01.17,0.508
2014-04-24 02:20:00,2956E-2,5C000400,-0724,1012,10370,027.9,045.3,0.150,745.3,01.17,0.508
2014-04-24 02:21:00,2965E-2,5C000400,-0724,1011,10470,027.9,045.3,0.150,745.3,01.17,0.508
2014-04-24 02:22:00,2956E-2,5C000400,-0724,1011,10333,027.9,045.3,0.150,745.2,01.17,0.508
2014-04-24 02:23:00,2960E-2,5C000400,-0724,1013,10457,027.9,045.3,0.150,745.2,01.17,0.508
2014-04-24 02:24:00,2984E-2,5C000400,-0724,1012,10420,027.9,045.3,0.150,745.3,01.17,0.508
2014-04-24 02:25:00,2951E-2,5C000400,-0724,1012,10461,028.0,045.3,0.150,745.2,01.17,0.508
2014-04-24 02:26:00,2981E-2,5C000400,-0724,1013,10408,028.0,045.3,0.150,745.4,01.17,0.508
2014-04-24 02:27:00,2988E-2,5C000400,-0724,1013,10408,027.9,045.3,0.150,745.3,01.17,0.508
2014-04-24 02:28:00,3054E-2,5C000400,-0724,1012,10477,027.9,045.3,0.150,745.2,01.17,0.508
2014-04-24 02:29:00,3000E-2,5C000400,-0724,1013,10408,028.0,045.3,0.150,745.3,01.17,0.508
2014-04-24 02:30:00,3060E-2,5C000400,-0724,1012,10348,028.0,045.3,0.150,745.5,01.17,0.508
2014-04-24 02:31:00,2967E-2,5C000400,-0724,1013,10561,028.0,045.3,0.150,745.5,01.17,0.508
2014-04-24 02:32:00,3066E-2,5C000400,-0724,1012,10452,027.9,045.3,0.150,745.5,01.17,0.508
2014-04-24 02:33:00,3021E-2,5C000400,-0724,1012,10504,027.9,045.3,0.150,745.6,01.17,0.508
2014-04-24 02:34:00,3015E-2,5C000400,-0724,1012,10338,027.9,045.3,0.150,745.6,01.17,0.508
2014-04-24 02:35:00,2986E-2,5C000400,-0724,1012,10407,027.9,045.3,0.150,745.6,01.17,0.508
2014-04-24 02:36:00,3038E-2,5C000400,-0724,1013,10365,027.9,045.3,0.150,745.6,01.17,0.508
2014-04-24 02:37:00,3025E-2,5C000400,-0724,1013,10172,027.9,045.3,0.150,745.7,01.17,0.508
2014-04-24 02:38:00,3041E-2,5C000400,-0724,1013,10210,027.9,045.3,0.150,745.6,01.17,0.508
2014-04-24 02:39:00,2984E-2,5C000400,-0724,1014,10459,027.9,045.3,0.150,745.6,01.17,0.508
2014-04-24 02:40:00,2984E-2,5C000400,-0724,1013,10266,027.9,045.3,0.150,745.7,01.17,0.508
2014-04-24 02:41:00,2965E-2,5C000400,-0724,1012,10295,027.9,045.3,0.150,745.7,01.17,0.508
2014-04-24 02:42:00,2956E-2,5C000400,-0724,1012,10361,027.9,045.3,0.150,745.5,01.17,0.508
2014-04-24 02:43:00,2983E-2,5C000400,-0724,1013,10272,027.9,045.3,0.150,745.6,01.17,0.508
2014-04-24 02:44:00,2994E-2,5C000400,-0724,1014,10274,027.9,045.3,0.150,745.6,01.17,0.508
2014-04-24 02:45:00,3012E-2,5C000400,-0724,1013,10349,027.9,045.3,0.150,745.6,01.17,0.508
2014-04-24 02:46:00,3002E-2,5C000400,-0724,1014,10485,027.9,045.3,0.150,745.7,01.17,0.508
2014-04-24 02:47:00,2965E-2,5C000400,-0724,1014,10354,027.9,045.3,0.150,745.7,01.17,0.508
2014-04-24 02:48:00,3006E-2,5C000400,-0724,1014,10232,027.9,045.3,0.150,745.7,01.17,0.508
2014-04-24 02:49:00,3012E-2,5C000400,-0724,1013,10337,027.9,045.3,0.150,745.7,01.17,0.508
2014-04-24 02:50:00,2899E-2,5C000400,-0724,1015,10433,027.9,045.3,0.150,745.7,01.17,0.508
2014-04-24 02:51:00,2997E-2,5C000400,-0724,1013,10312,027.9,045.3,0.150,745.7,01.17,0.508
2014-04-24 02:52:00,2901E-2,5C000400,-0724,1015,10402,027.9,045.3,0.150,745.6,01.17,0.508
2014-04-24 02:53:00,2933E-2,5C000400,-0724,1014,10496,027.9,045.3,0.150,745.7,01.17,0.508
2014-04-24 02:54:00,2990E-2,5C000400,-0724,1014,10335,027.9,045.3,0.150,745.6,01.17,0.508
2014-04-24 02:55:00,2911E-2,5C000400,-0724,1014,10398,027.9,045.3,0.150,745.8,01.17,0.508
2014-04-24 02:56:00,2960E-2,5C000400,-0724,1015,10363,027.9,045.3,0.150,745.7,01.17,0.508
2014-04-24 02:57:00,2905E-2,5C000400,-0724,1014,10282,027.9,045.3,0.150,745.8,01.17,0.508
2014-04-24 02:58:00,2969E-2,5C000400,-0724,1014,10410,027.9,045.3,0.151,745.6,01.17,0.508
2014-04-24 02:59:00,2917E-2,5C000400,-0724,1016,10364,027.9,045.3,0.150,745.7,01.17,0.508
2014-04-24 03:00:00,2971E-2,5C000400,-0724,1014,10326,027.9,045.3,0.150,745.6,01.17,0.508
2014-04-24 03:01:00,2959E-2,5C000400,-0724,1015,10346,027.9,045.3,0.150,745.7,01.17,0.508
2014-04-24 03:02:00,2944E-2,5C000400,-0724,1015,10393,027.9,045.3,0.150,745.7,01.17,0.508
2014-04-24 03:03:00,2951E-2,5C000400,-0724,1015,10386,027.9,045.3,0.150,745.7,01.17,0.508
2014-04-24 03:04:00,2898E-2,5C000400,-0724,1014,10217,027.9,045.3,0.150,745.8,01.17,0.508
2014-04-24 03:05:00,2919E-2,5C000400,-0724,1014,10335,027.9,045.3,0.150,745.9,01.17,0.508
2014-04-24 03:06:00,2902E-2,5C000400,-0724,1015,10451,027.9,045.3,0.150,745.6,01.17,0.508
2014-04-24 03:07:00,2854E-2,5C000400,-0724,1015,10504,027.9,045.3,0.151,745.7,01.17,0.508
2014-04-24 03:08:00,2876E-2,5C000400,-0724,1014,10365,027.9,045.3,0.150,745.7,01.17,0.508
2014-04-24 03:09:00,2887E-2,5C000400,-0724,1013,10538,027.9,045.3,0.150,745.7,01.17,0.508
2014-04-24 03:10:00,2875E-2,5C000400,-0724,1014,10379,027.9,045.3,0.150,745.5,01.17,0.508
2014-04-24 03:11:00,2849E-2,5C000400,-0724,1013,10416,028.0,045.3,0.151,745.6,01.17,0.508
2014-04-24 03:12:00,2854E-2,5C000400,-0724,1012,10390,027.9,045.3,0.150,745.6,01.17,0.508
2014-04-24 03:13:00,2827E-2,5C000400,-0724,1009,10487,027.9,045.3,0.150,745.6,01.17,0.508
2014-04-24 03:14:00,2833E-2,5C000400,-0724,1010,10482,027.9,045.3,0.150,745.7,01.17,0.508
2014-04-24 03:15:00,2841E-2,5C000400,-0724,1008,10378,028.0,045.3,0.150,745.5,01.17,0.508
2014-04-24 03:16:00,2789E-2,5C000400,-0724,1008,10514,027.9,045.3,0.150,745.4,01.17,0.508
2014-04-24 03:17:00,2754E-2,5C000400,-0724,1009,10479,028.0,045.3,0.150,745.6,01.17,0.508
2014-04-24 03:18:00,2803E-2,5C000400,-0724,1009,10431,027.9,045.3,0.150,745.5,01.17,0.508
2014-04-24 03:19:00,2830E-2,5C000400,-0724,1008,10397,028.0,045.3,0.150,745.6,01.17,0.508
2014-04-24 03:20:00,2798E-2,5C000400,-0724,1007,10240,028.0,045.3,0.150,745.6,01.17,0.508
2014-04-24 03:21:00,2802E-2,5C000400,-0724,1007,10535,028.0,045.3,0.150,745.6,01.17,0.508
2014-04-24 03:22:00,2805E-2,5C000400,-0724,1007,10458,028.0,045.3,0.150,745.6,01.17,0.508
2014-04-24 03:23:00,2759E-2,5C000400,-0724,1006,10514,028.0,045.3,0.150,745.4,01.17,0.508
2014-04-24 03:24:00,2786E-2,5C000400,-0724,1005,10360,027.9,045.3,0.150,745.6,01.17,0.508
2014-04-24 03:25:00,2771E-2,5C000400,-0724,1007,10574,027.9,045.3,0.150,745.5,01.17,0.508
2014-04-24 03:26:00,2764E-2,5C000400,-0724,1006,10630,028.0,045.3,0.150,745.5,01.17,0.508
2014-04-24 03:27:00,2755E-2,5C000400,-0724,1007,10562,027.9,045.3,0.150,745.4,01.17,0.508
2014-04-24 03:28:00,2758E-2,5C000400,-0724,1007,10371,027.9,045.3,0.150,745.6,01.17,0.508
2014-04-24 03:29:00,2792E-2,5C000400,-0724,1007,10606,027.9,045.3,0.150,745.5,01.17,0.508
2014-04-24 03:30:00,2767E-2,5C000400,-0724,1008,10577,027.9,045.3,0.150,745.5,01.17,0.508
2014-04-24 03:31:00,2761E-2,5C000400,-0724,1008,10479,028.0,045.3,0.150,745.4,01.17,0.508
2014-04-24 03:32:00,2770E-2,5C000400,-0724,1008,10571,027.9,045.3,0.150,745.6,01.17,0.508
2014-04-24 03:33:00,2724E-2,5C000400,-0724,1007,10432,027.9,045.3,0.150,745.6,01.17,0.508
2014-04-24 03:34:00,2779E-2,5C000400,-0724,1008,10533,027.9,045.3,0.150,745.8,01.17,0.508
2014-04-24 03:35:00,2773E-2,5C000400,-0724,1008,10562,028.0,045.3,0.150,745.6,01.17,0.508
2014-04-24 03:36:00,2783E-2,5C000400,-0724,1008,10587,028.0,045.3,0.150,745.5,01.17,0.508
2014-04-24 03:37:00,2792E-2,5C000400,-0724,1009,10310,027.9,045.3,0.150,745.5,01.17,0.508
2014-04-24 03:38:00,2804E-2,5C000400,-0724,1009,10389,028.0,045.3,0.150,745.6,01.17,0.508
2014-04-24 03:39:00,2779E-2,5C000400,-0724,1010,10493,027.9,045.3,0.150,745.3,01.17,0.508
2014-04-24 03:40:00,2759E-2,5C000400,-0724,1009,10398,027.9,045.3,0.150,745.6,01.17,0.508
2014-04-24 03:41:00,2761E-2,5C000400,-0724,1009,10460,027.9,045.3,0.150,745.5,01.17,0.508
2014-04-24 03:42:00,2802E-2,5C000400,-0724,1009,10521,027.9,045.3,0.150,745.5,01.17,0.508
2014-04-24 03:43:00,2795E-2,5C000400,-0724,1010,10211,027.9,045.3,0.150,745.5,01.17,0.508
2014-04-24 03:44:00,2812E-2,5C000400,-0724,1009,10103,027.9,045.3,0.150,745.6,01.17,0.508
2014-04-24 03:45:00,2737E-2,5C000400,-0724,1010,10373,027.9,045.3,0.150,745.5,01.17,0.508
2014-04-24 03:46:00,2792E-2,5C000400,-0724,1011,10392,027.9,045.3,0.150,745.4,01.17,0.508
2014-04-24 03:47:00,2735E-2,5C000400,-0724,1010,10244,027.9,045.3,0.150,745.6,01.17,0.508
2014-04-24 03:48:00,2812E-2,5C000400,-0724,1013,10540,027.9,045.3,0.150,745.7,01.17,0.508
2014-04-24 03:49:00,2780E-2,5C000400,-0724,1011,10284,027.9,045.3,0.150,745.6,01.17,0.508
2014-04-24 03:50:00,2750E-2,5C000400,-0724,1011,10420,027.9,045.3,0.150,745.4,01.17,0.508
2014-04-24 03:51:00,2772E-2,5C000400,-0724,1011,10388,027.9,045.3,0.150,745.5,01.17,0.508
2014-04-24 03:52:00,2755E-2,5C000400,-0724,1011,10406,027.9,045.3,0.150,745.6,01.17,0.508
2014-04-24 03:53:00,2771E-2,5C000400,-0724,1011,10529,027.9,045.3,0.150,745.5,01.17,0.508
2014-04-24 03:54:00,2818E-2,5C000400,-0724,1011,10480,027.9,045.3,0.151,745.5,01.17,0.508
2014-04-24 03:55:00,2752E-2,5C000400,-0724,1010,10401,027.9,045.3,0.150,745.5,01.17,0.508
2014-04-24 03:56:00,2764E-2,5C000400,-0724,1012,10419,027.9,045.3,0.151,745.5,01.17,0.508
2014-04-24 03:57:00,2737E-2,5C000400,-0724,1012,10392,027.9,045.3,0.150,745.7,01.17,0.508
2014-04-24 03:58:00,2717E-2,5C000400,-0724,1010,10378,027.9,045.3,0.150,745.8,01.17,0.508
2014-04-24 03:59:00,2742E-2,5C000400,-0724,1010,10388,027.9,045.3,0.150,745.7,01.17,0.508
2014-04-24 04:00:00,2782E-2,5C000400,-0724,1010,10381,027.9,045.3,0.151,745.8,01.17,0.508
2014-04-24 04:01:00,2722E-2,5C000400,-0724,1012,10491,027.9,045.3,0.150,745.9,01.17,0.508
2014-04-24 04:02:00,2798E-2,5C000400,-0724,1010,10242,027.9,045.3,0.150,746.0,01.17,0.508
2014-04-24 04:03:00,2735E-2,5C000400,-0724,1012,10411,027.9,045.3,0.151,746.0,01.17,0.508
2014-04-24 04:04:00,2778E-2,5C000400,-0724,1010,10592,027.9,045.3,0.150,746.1,01.17,0.508
2014-04-24 04:05:00,2773E-2,5C000400,-0724,1011,10488,027.9,045.3,0.151,745.9,01.17,0.508
2014-04-24 04:06:00,2789E-2,5C000400,-0724,1011,10261,027.9,045.3,0.151,745.9,01.17,0.508
2014-04-24 04:07:00,2745E-2,5C000400,-0724,1012,10424,027.9,045.3,0.150,745.9,01.17,0.508
2014-04-24 04:08:00,2757E-2,5C000400,-0724,1012,10416,027.9,045.3,0.150,746.0,01.17,0.508
2014-04-24 04:09:00,2751E-2,5C000400,-0724,1013,10394,027.9,045.3,0.151,746.1,01.17,0.508
2014-04-24 04:10:00,2748E-2,5C000400,-0724,1012,10471,027.9,045.3,0.151,746.1,01.17,0.508
2014-04-24 04:11:00,2751E-2,5C000400,-0724,1011,10409,027.9,045.3,0.151,746.1,01.17,0.508
2014-04-24 04:12:00,2765E-2,5C000400,-0724,1012,10334,027.9,045.3,0.151,746.1,01.17,0.508
2014-04-24 04:13:00,2751E-2,5C000400,-0724,1012,10352,027.9,045.3,0.151,746.1,01.17,0.508
2014-04-24 04:14:00,2780E-2,5C000400,-0724,1012,10512,027.9,045.3,0.151,746.2,01.17,0.508
2014-04-24 04:15:00,2733E-2,5C000400,-0724,1013,10407,027.8,045.3,0.151,746.1,01.17,0.508
2014-04-24 04:16:00,2774E-2,5C000400,-0724,1012,10227,027.8,045.3,0.151,746.1,01.17,0.508
2014-04-24 04:17:00,2764E-2,5C000400,-0724,1014,10451,027.8,045.3,0.151,746.1,01.17,0.508
2014-04-24 04:18:00,2786E-2,5C000400,-0724,1012,10414,027.8,045.3,0.151,746.1,01.17,0.508
2014-04-24 04:19:00,2793E-2,5C000400,-0724,1013,10510,027.8,045.3,0.151,746.2,01.17,0.508
2014-04-24 04:20:00,2814E-2,5C000400,-0724,1014,10382,027.8,045.3,0.151,746.1,01.17,0.508